"Sample Date","Sample Time","Sample Value","Units","Flow Rate","Sample Interval","Number Channels","Micron Size 0","Counts/Channel 0","Micron Size 1","Counts/Channel 1","Micron Size 2","Counts/Channel 2","Micron Size 3","Counts/Channel 3","Micron Size 4","Counts/Channel 4","Micron Size 5","Counts/Channel 5","Micron Size 6","Counts/Channel 6","Micron Size 7","Counts/Channel 7","Micron Size 8","Counts/Channel 8","Micron Size 9","Counts/Channel 9","Micron Size 10","Counts/Channel 10","Micron Size 11","Counts/Channel 11","Micron Size 12","Counts/Channel 12","Micron Size 13","Counts/Channel 13","Micron Size 14","Counts/Channel 14","Micron Size 15","Counts/Channel 15","Micron Size 16","Counts/Channel 16","Micron Size 17","Counts/Channel 17","Micron Size 18","Counts/Channel 18","Micron Size 19","Counts/Channel 19","Micron Size 20","Counts/Channel 20","Micron Size 21","Counts/Channel 21","Micron Size 22","Counts/Channel 22","Micron Size 23","Counts/Channel 23","Micron Size 24","Counts/Channel 24","Micron Size 25","Counts/Channel 25","Micron Size 26","Counts/Channel 26","Micron Size 27","Counts/Channel 27","Micron Size 28","Counts/Channel 28","Micron Size 29","Counts/Channel 29","Micron Size 30","Counts/Channel 30","Micron Size 31","Counts/Channel 31"
"04/02/08","04:00:01",270765.000,"cc",28356.402,6.00,6,0.100,247556.000,0.200,21364.000,0.300,1049.000,0.500,572.000,1.000,224.000,5.000,0
"04/02/08","04:00:07",260983.000,"cc",28337.656,6.00,6,0.100,220861.000,0.200,37773.000,0.300,1520.000,0.500,607.000,1.000,222.000,5.000,0
"04/02/08","04:00:13",300134.000,"cc",28311.754,6.00,6,0.100,273575.000,0.200,24733.000,0.300,1073.000,0.500,548.000,1.000,205.000,5.000,0
"04/02/08","04:00:19",221250.000,"cc",28349.225,6.00,6,0.100,203420.000,0.200,16279.000,0.300,813.000,0.500,556.000,1.000,182.000,5.000,0
"04/02/08","04:00:25",248683.000,"cc",28227.738,6.00,6,0.100,227982.000,0.200,19101.000,0.300,923.000,0.500,495.000,1.000,182.000,5.000,0
"04/02/08","04:00:31",180017.000,"cc",28261.656,6.00,6,0.100,165897.000,0.200,12766.000,0.300,686.000,0.500,476.000,1.000,192.000,5.000,0
"04/02/08","04:00:37",256498.000,"cc",28302.602,6.00,6,0.100,234768.000,0.200,20176.000,0.300,899.000,0.500,490.000,1.000,165.000,5.000,0
"04/02/08","04:00:43",214892.000,"cc",28314.359,6.00,6,0.100,197858.000,0.200,15589.000,0.300,780.000,0.500,498.000,1.000,167.000,5.000,0
"04/02/08","04:00:49",183209.000,"cc",28304.488,6.00,6,0.100,169051.000,0.200,12761.000,0.300,704.000,0.500,518.000,1.000,175.000,5.000,0
"04/02/08","04:00:55",160220.000,"cc",28356.668,6.00,6,0.100,148046.000,0.200,10892.000,0.300,632.000,0.500,482.000,1.000,168.000,5.000,0
"04/02/08","04:01:01",139263.000,"cc",28296.547,6.00,6,0.100,128960.000,0.200,9083.000,0.300,587.000,0.500,468.000,1.000,165.000,5.000,0
"04/02/08","04:01:07",92608.000,"cc",28298.789,6.00,6,0.100,85733.000,0.200,5762.000,0.300,523.000,0.500,462.000,1.000,128.000,5.000,0
"04/02/08","04:01:13",109643.000,"cc",28385.414,6.00,6,0.100,101417.000,0.200,7078.000,0.300,548.000,0.500,447.000,1.000,153.000,5.000,0
"04/02/08","04:01:19",285602.000,"cc",28358.861,6.00,6,0.100,259913.000,0.200,24000.000,0.300,998.000,0.500,489.000,1.000,202.000,5.000,0
"04/02/08","04:01:25",192499.000,"cc",28250.508,6.00,6,0.100,137782.000,0.200,52297.000,0.300,1754.000,0.500,509.000,1.000,157.000,5.000,0
"04/02/08","04:01:31",209891.000,"cc",28310.053,6.00,6,0.100,151889.000,0.200,55503.000,0.300,1782.000,0.500,557.000,1.000,160.000,5.000,0
"04/02/08","04:01:37",311515.000,"cc",28295.994,6.00,6,0.100,283686.000,0.200,26056.000,0.300,1046.000,0.500,537.000,1.000,190.000,5.000,0
"04/02/08","04:01:43",296281.000,"cc",28365.232,6.00,6,0.100,270500.000,0.200,24113.000,0.300,1006.000,0.500,491.000,1.000,171.000,5.000,0
"04/02/08","04:01:49",307768.000,"cc",28323.463,6.00,6,0.100,280627.000,0.200,25341.000,0.300,1062.000,0.500,540.000,1.000,198.000,5.000,0
"04/02/08","04:01:55",231086.000,"cc",28326.625,6.00,6,0.100,185325.000,0.200,43282.000,0.300,1662.000,0.500,598.000,1.000,219.000,5.000,0
"04/02/08","04:02:01",343128.000,"cc",28322.734,6.00,6,0.100,310269.000,0.200,30657.000,0.300,1353.000,0.500,625.000,1.000,224.000,5.000,0
"04/02/08","04:02:07",247267.000,"cc",28356.148,6.00,6,0.100,217883.000,0.200,27345.000,0.300,1251.000,0.500,596.000,1.000,192.000,5.000,0
"04/02/08","04:02:13",254950.000,"cc",28272.479,6.00,6,0.100,233211.000,0.200,19901.000,0.300,1054.000,0.500,587.000,1.000,197.000,5.000,0
"04/02/08","04:02:19",195443.000,"cc",28292.719,6.00,6,0.100,164046.000,0.200,29420.000,0.300,1221.000,0.500,558.000,1.000,198.000,5.000,0
"04/02/08","04:02:25",177305.000,"cc",28283.754,6.00,6,0.100,163400.000,0.200,12240.000,0.300,818.000,0.500,626.000,1.000,221.000,5.000,0
"04/02/08","04:02:31",236900.000,"cc",28309.311,6.00,6,0.100,217227.000,0.200,17940.000,0.300,928.000,0.500,576.000,1.000,229.000,5.000,0
"04/02/08","04:02:37",215394.000,"cc",28344.525,6.00,6,0.100,197855.000,0.200,15879.000,0.300,841.000,0.500,576.000,1.000,243.000,5.000,0
"04/02/08","04:02:43",159105.000,"cc",28299.180,6.00,6,0.100,146357.000,0.200,11107.000,0.300,842.000,0.500,590.000,1.000,209.000,5.000,0
"04/02/08","04:02:49",236093.000,"cc",28332.188,6.00,6,0.100,216272.000,0.200,18014.000,0.300,1015.000,0.500,566.000,1.000,226.000,5.000,0
"04/02/08","04:02:55",264814.000,"cc",28371.424,6.00,6,0.100,240783.000,0.200,22029.000,0.300,1215.000,0.500,570.000,1.000,217.000,5.000,0
"04/02/08","04:03:01",232876.000,"cc",28207.813,6.00,6,0.100,211832.000,0.200,19033.000,0.300,1197.000,0.500,611.000,1.000,203.000,5.000,0
"04/02/08","04:03:07",288616.000,"cc",28366.283,6.00,6,0.100,260764.000,0.200,25454.000,0.300,1484.000,0.500,651.000,1.000,263.000,5.000,0
"04/02/08","04:03:13",314240.000,"cc",28327.607,6.00,6,0.100,284756.000,0.200,27129.000,0.300,1443.000,0.500,677.000,1.000,235.000,5.000,0
"04/02/08","04:03:19",154664.000,"cc",28357.074,6.00,6,0.100,141290.000,0.200,11539.000,0.300,958.000,0.500,649.000,1.000,228.000,5.000,0
"04/02/08","04:03:25",157474.000,"cc",28293.961,6.00,6,0.100,143704.000,0.200,11958.000,0.300,913.000,0.500,643.000,1.000,256.000,5.000,0
"04/02/08","04:03:31",203488.000,"cc",28289.539,6.00,6,0.100,185675.000,0.200,15836.000,0.300,1104.000,0.500,632.000,1.000,241.000,5.000,0
"04/02/08","04:03:37",279485.000,"cc",28339.586,6.00,6,0.100,254260.000,0.200,23120.000,0.300,1325.000,0.500,585.000,1.000,195.000,5.000,0
"04/02/08","04:03:43",213750.000,"cc",28342.828,6.00,6,0.100,195073.000,0.200,16740.000,0.300,1142.000,0.500,585.000,1.000,210.000,5.000,0
"04/02/08","04:03:49",141662.000,"cc",28376.824,6.00,6,0.100,129953.000,0.200,10029.000,0.300,885.000,0.500,577.000,1.000,218.000,5.000,0
"04/02/08","04:03:55",169881.000,"cc",28302.262,6.00,6,0.100,155607.000,0.200,12561.000,0.300,963.000,0.500,546.000,1.000,204.000,5.000,0
"04/02/08","04:04:01",150551.000,"cc",28322.543,6.00,6,0.100,138248.000,0.200,10757.000,0.300,825.000,0.500,526.000,1.000,195.000,5.000,0
"04/02/08","04:04:07",178462.000,"cc",28266.693,6.00,6,0.100,163618.000,0.200,13217.000,0.300,897.000,0.500,536.000,1.000,194.000,5.000,0
"04/02/08","04:04:13",151883.000,"cc",28313.809,6.00,6,0.100,139841.000,0.200,10535.000,0.300,755.000,0.500,544.000,1.000,208.000,5.000,0
"04/02/08","04:04:19",132753.000,"cc",28357.852,6.00,6,0.100,122093.000,0.200,9134.000,0.300,780.000,0.500,547.000,1.000,199.000,5.000,0
"04/02/08","04:04:25",124246.000,"cc",28334.770,6.00,6,0.100,114503.000,0.200,8403.000,0.300,677.000,0.500,488.000,1.000,175.000,5.000,0
"04/02/08","04:04:31",94476.000,"cc",28226.178,6.00,6,0.100,87249.000,0.200,5995.000,0.300,579.000,0.500,490.000,1.000,163.000,5.000,0
"04/02/08","04:04:37",86935.000,"cc",28328.492,6.00,6,0.100,80112.000,0.200,5666.000,0.300,541.000,0.500,446.000,1.000,170.000,5.000,0
"04/02/08","04:04:43",58203.000,"cc",28245.844,6.00,6,0.100,53473.000,0.200,3580.000,0.300,517.000,0.500,459.000,1.000,174.000,5.000,0
"04/02/08","04:04:49",37592.000,"cc",28321.139,6.00,6,0.100,33740.000,0.200,2281.000,0.300,657.000,0.500,642.000,1.000,272.000,5.000,0
"04/02/08","04:04:55",43473.000,"cc",28348.875,6.00,6,0.100,39541.000,0.200,2639.000,0.300,551.000,0.500,534.000,1.000,208.000,5.000,0
"04/02/08","04:05:01",40992.000,"cc",28319.604,6.00,6,0.100,37376.000,0.200,2382.000,0.300,545.000,0.500,512.000,1.000,177.000,5.000,0
"04/02/08","04:05:07",41326.000,"cc",28372.686,6.00,6,0.100,37486.000,0.200,2464.000,0.300,562.000,0.500,604.000,1.000,210.000,5.000,0
"04/02/08","04:05:13",45872.000,"cc",28260.740,6.00,6,0.100,41781.000,0.200,2832.000,0.300,536.000,0.500,517.000,1.000,206.000,5.000,0
"04/02/08","04:05:19",66121.000,"cc",28366.861,6.00,6,0.100,60629.000,0.200,4203.000,0.300,581.000,0.500,535.000,1.000,173.000,5.000,0
"04/02/08","04:05:25",58523.000,"cc",28340.027,6.00,6,0.100,53429.000,0.200,3682.000,0.300,619.000,0.500,560.000,1.000,233.000,5.000,0
"04/02/08","04:05:31",50439.000,"cc",28327.690,6.00,6,0.100,46037.000,0.200,3112.000,0.300,561.000,0.500,541.000,1.000,188.000,5.000,0
"04/02/08","04:05:37",35367.000,"cc",28345.672,6.00,6,0.100,32007.000,0.200,2076.000,0.300,537.000,0.500,543.000,1.000,204.000,5.000,0
"04/02/08","04:05:43",24877.000,"cc",28290.592,6.00,6,0.100,22302.000,0.200,1373.000,0.300,470.000,0.500,517.000,1.000,215.000,5.000,0
"04/02/08","04:05:49",38904.000,"cc",28363.971,6.00,6,0.100,34931.000,0.200,2436.000,0.300,627.000,0.500,659.000,1.000,251.000,5.000,0
"04/02/08","04:05:55",36643.000,"cc",28187.088,6.00,6,0.100,32159.000,0.200,2609.000,0.300,791.000,0.500,774.000,1.000,310.000,5.000,0
"04/02/08","04:06:01",38833.000,"cc",28268.932,6.00,6,0.100,34408.000,0.200,2725.000,0.300,766.000,0.500,692.000,1.000,242.000,5.000,0
"04/02/08","04:06:07",32097.000,"cc",28368.383,6.00,6,0.100,28170.000,0.200,2372.000,0.300,684.000,0.500,650.000,1.000,221.000,5.000,0
"04/02/08","04:06:13",31433.000,"cc",28322.627,6.00,6,0.100,27640.000,0.200,2131.000,0.300,733.000,0.500,690.000,1.000,239.000,5.000,0
"04/02/08","04:06:19",34731.000,"cc",28316.148,6.00,6,0.100,30721.000,0.200,2269.000,0.300,781.000,0.500,670.000,1.000,290.000,5.000,0
"04/02/08","04:06:25",40015.000,"cc",28322.469,6.00,6,0.100,35358.000,0.200,2734.000,0.300,812.000,0.500,785.000,1.000,326.000,5.000,0
"04/02/08","04:06:31",59788.000,"cc",28355.621,6.00,6,0.100,53406.000,0.200,4223.000,0.300,930.000,0.500,875.000,1.000,354.000,5.000,0
"04/02/08","04:06:37",61418.000,"cc",28269.629,6.00,6,0.100,54683.000,0.200,4314.000,0.300,1019.000,0.500,998.000,1.000,404.000,5.000,0
"04/02/08","04:06:43",67113.000,"cc",28333.434,6.00,6,0.100,59554.000,0.200,4933.000,0.300,1230.000,0.500,981.000,1.000,415.000,5.000,0
"04/02/08","04:06:49",75153.000,"cc",28281.772,6.00,6,0.100,66908.000,0.200,5521.000,0.300,1174.000,0.500,1120.000,1.000,430.000,5.000,0
"04/02/08","04:06:55",75006.000,"cc",28364.857,6.00,6,0.100,66726.000,0.200,5443.000,0.300,1285.000,0.500,1085.000,1.000,467.000,5.000,0
"04/02/08","04:07:01",43506.000,"cc",28281.277,6.00,6,0.100,38150.000,0.200,3037.000,0.300,950.000,0.500,984.000,1.000,385.000,5.000,0
"04/02/08","04:07:07",49823.000,"cc",28360.809,6.00,6,0.100,44206.000,0.200,3560.000,0.300,915.000,0.500,827.000,1.000,315.000,5.000,0
"04/02/08","04:07:13",44435.000,"cc",28315.973,6.00,6,0.100,39291.000,0.200,3234.000,0.300,832.000,0.500,779.000,1.000,299.000,5.000,0
"04/02/08","04:07:19",49780.000,"cc",28312.772,6.00,6,0.100,43954.000,0.200,3710.000,0.300,947.000,0.500,845.000,1.000,324.000,5.000,0
"04/02/08","04:07:25",53326.000,"cc",28318.023,6.00,6,0.100,47275.000,0.200,3911.000,0.300,991.000,0.500,814.000,1.000,335.000,5.000,0
"04/02/08","04:07:31",52374.000,"cc",28304.863,6.00,6,0.100,46521.000,0.200,3750.000,0.300,910.000,0.500,847.000,1.000,346.000,5.000,0
"04/02/08","04:07:37",52618.000,"cc",28330.690,6.00,6,0.100,46702.000,0.200,3880.000,0.300,907.000,0.500,817.000,1.000,312.000,5.000,0
"04/02/08","04:07:43",38695.000,"cc",28342.664,6.00,6,0.100,33861.000,0.200,2886.000,0.300,880.000,0.500,796.000,1.000,272.000,5.000,0
"04/02/08","04:07:49",33913.000,"cc",28305.609,6.00,6,0.100,29192.000,0.200,2686.000,0.300,877.000,0.500,822.000,1.000,336.000,5.000,0
"04/02/08","04:07:55",38627.000,"cc",28312.020,6.00,6,0.100,32607.000,0.200,3136.000,0.300,1316.000,0.500,1112.000,1.000,456.000,5.000,0
"04/02/08","04:08:01",40541.000,"cc",28417.201,6.00,6,0.100,34360.000,0.200,3320.000,0.300,1182.000,0.500,1174.000,1.000,505.000,5.000,0
"04/02/08","04:08:07",53586.000,"cc",28189.682,6.00,6,0.100,45402.000,0.200,4634.000,0.300,1546.000,0.500,1428.000,1.000,576.000,5.000,0
"04/02/08","04:08:13",90087.000,"cc",28361.055,6.00,6,0.100,79080.000,0.200,7557.000,0.300,1598.000,0.500,1342.000,1.000,510.000,5.000,0
"04/02/08","04:08:19",113610.000,"cc",28293.922,6.00,6,0.100,99937.000,0.200,10041.000,0.300,1750.000,0.500,1353.000,1.000,529.000,5.000,0
"04/02/08","04:08:25",241503.000,"cc",28371.473,6.00,6,0.100,211940.000,0.200,25001.000,0.300,2707.000,0.500,1400.000,1.000,455.000,5.000,0
"04/02/08","04:08:31",179320.000,"cc",28319.359,6.00,6,0.100,157291.000,0.200,17552.000,0.300,2430.000,0.500,1483.000,1.000,564.000,5.000,0
"04/02/08","04:08:37",145809.000,"cc",28293.416,6.00,6,0.100,127443.000,0.200,13850.000,0.300,2366.000,0.500,1573.000,1.000,577.000,5.000,0
"04/02/08","04:08:43",189466.000,"cc",28230.242,6.00,6,0.100,166937.000,0.200,18292.000,0.300,2483.000,0.500,1273.000,1.000,481.000,5.000,0
"04/02/08","04:08:49",98187.000,"cc",28288.807,6.00,6,0.100,84239.000,0.200,9079.000,0.300,2275.000,0.500,1829.000,1.000,765.000,5.000,0
"04/02/08","04:08:55",118484.000,"cc",28364.139,6.00,6,0.100,102567.000,0.200,11179.000,0.300,2341.000,0.500,1751.000,1.000,646.000,5.000,0
"04/02/08","04:09:01",63816.000,"cc",28316.260,6.00,6,0.100,53600.000,0.200,5803.000,0.300,2003.000,0.500,1700.000,1.000,710.000,5.000,0
"04/02/08","04:09:07",89988.000,"cc",28286.451,6.00,6,0.100,78279.000,0.200,7886.000,0.300,1787.000,0.500,1486.000,1.000,550.000,5.000,0
"04/02/08","04:09:13",107521.000,"cc",28303.900,6.00,6,0.100,94359.000,0.200,9526.000,0.300,1805.000,0.500,1337.000,1.000,494.000,5.000,0
"04/02/08","04:09:19",107490.000,"cc",28319.926,6.00,6,0.100,93845.000,0.200,9637.000,0.300,1928.000,0.500,1506.000,1.000,574.000,5.000,0
"04/02/08","04:09:25",81315.000,"cc",28339.766,6.00,6,0.100,70073.000,0.200,7319.000,0.300,1796.000,0.500,1518.000,1.000,609.000,5.000,0
"04/02/08","04:09:31",66874.000,"cc",28331.541,6.00,6,0.100,57695.000,0.200,5959.000,0.300,1566.000,0.500,1216.000,1.000,438.000,5.000,0
"04/02/08","04:09:37",37796.000,"cc",28360.047,6.00,6,0.100,28635.000,0.200,3920.000,0.300,2310.000,0.500,2130.000,1.000,801.000,5.000,0
"04/02/08","04:09:43",29824.000,"cc",28277.797,6.00,6,0.100,22428.000,0.200,3041.000,0.300,1882.000,0.500,1737.000,1.000,736.000,5.000,0
"04/02/08","04:09:49",29848.000,"cc",28321.481,6.00,6,0.100,22707.000,0.200,3080.000,0.300,1798.000,0.500,1648.000,1.000,615.000,5.000,0
"04/02/08","04:09:55",21416.000,"cc",28419.369,6.00,6,0.100,17210.000,0.200,1753.000,0.300,1067.000,0.500,1015.000,1.000,371.000,5.000,0
"04/02/08","04:10:01",28209.000,"cc",28284.736,6.00,6,0.100,24029.000,0.200,2071.000,0.300,946.000,0.500,865.000,1.000,298.000,5.000,0
"04/02/08","04:10:07",27371.000,"cc",28204.145,6.00,6,0.100,23916.000,0.200,1786.000,0.300,712.000,0.500,696.000,1.000,261.000,5.000,0
"04/02/08","04:10:13",26835.000,"cc",28375.203,6.00,6,0.100,22831.000,0.200,1935.000,0.300,939.000,0.500,829.000,1.000,301.000,5.000,0
"04/02/08","04:10:19",28488.000,"cc",28322.402,6.00,6,0.100,24564.000,0.200,2007.000,0.300,837.000,0.500,817.000,1.000,263.000,5.000,0
"04/02/08","04:10:25",18234.000,"cc",28347.537,6.00,6,0.100,15940.000,0.200,976.000,0.300,496.000,0.500,600.000,1.000,222.000,5.000,0
"04/02/08","04:10:31",20564.000,"cc",28339.229,6.00,6,0.100,17117.000,0.200,1400.000,0.300,875.000,0.500,873.000,1.000,299.000,5.000,0
"04/02/08","04:10:37",20610.000,"cc",28288.014,6.00,6,0.100,16645.000,0.200,1605.000,0.300,944.000,0.500,1004.000,1.000,412.000,5.000,0
"04/02/08","04:10:43",25778.000,"cc",28313.602,6.00,6,0.100,22379.000,0.200,1698.000,0.300,727.000,0.500,721.000,1.000,253.000,5.000,0
"04/02/08","04:10:49",21419.000,"cc",28310.416,6.00,6,0.100,17883.000,0.200,1501.000,0.300,831.000,0.500,863.000,1.000,341.000,5.000,0
"04/02/08","04:10:55",23578.000,"cc",28318.936,6.00,6,0.100,18703.000,0.200,1984.000,0.300,1192.000,0.500,1236.000,1.000,463.000,5.000,0
"04/02/08","04:11:01",26272.000,"cc",28257.018,6.00,6,0.100,21791.000,0.200,2001.000,0.300,1066.000,0.500,1049.000,1.000,365.000,5.000,0
"04/02/08","04:11:07",31113.000,"cc",28338.721,6.00,6,0.100,26272.000,0.200,2415.000,0.300,1058.000,0.500,983.000,1.000,385.000,5.000,0
"04/02/08","04:11:13",45017.000,"cc",28324.863,6.00,6,0.100,39283.000,0.200,3354.000,0.300,1064.000,0.500,956.000,1.000,360.000,5.000,0
"04/02/08","04:11:19",22639.000,"cc",28353.318,6.00,6,0.100,19309.000,0.200,1514.000,0.300,765.000,0.500,743.000,1.000,308.000,5.000,0
"04/02/08","04:11:25",29655.000,"cc",28369.711,6.00,6,0.100,24911.000,0.200,2296.000,0.300,1011.000,0.500,1043.000,1.000,394.000,5.000,0
"04/02/08","04:11:31",28567.000,"cc",28313.492,6.00,6,0.100,23296.000,0.200,2332.000,0.300,1199.000,0.500,1251.000,1.000,489.000,5.000,0
"04/02/08","04:11:37",24750.000,"cc",28366.357,6.00,6,0.100,20489.000,0.200,1881.000,0.300,1008.000,0.500,977.000,1.000,395.000,5.000,0
"04/02/08","04:11:43",34640.000,"cc",28250.018,6.00,6,0.100,29548.000,0.200,2640.000,0.300,1050.000,0.500,1002.000,1.000,400.000,5.000,0
"04/02/08","04:11:49",23744.000,"cc",28246.283,6.00,6,0.100,19802.000,0.200,1859.000,0.300,866.000,0.500,885.000,1.000,332.000,5.000,0
"04/02/08","04:11:55",25921.000,"cc",28337.012,6.00,6,0.100,21001.000,0.200,2149.000,0.300,1156.000,0.500,1172.000,1.000,443.000,5.000,0
"04/02/08","04:12:01",27935.000,"cc",28350.047,6.00,6,0.100,22723.000,0.200,2380.000,0.300,1155.000,0.500,1235.000,1.000,442.000,5.000,0
"04/02/08","04:12:07",25898.000,"cc",28325.740,6.00,6,0.100,20060.000,0.200,2371.000,0.300,1457.000,0.500,1466.000,1.000,544.000,5.000,0
"04/02/08","04:12:13",29810.000,"cc",28325.250,6.00,6,0.100,25036.000,0.200,2317.000,0.300,1051.000,0.500,1007.000,1.000,399.000,5.000,0
"04/02/08","04:12:19",30017.000,"cc",28313.740,6.00,6,0.100,25116.000,0.200,2344.000,0.300,1094.000,0.500,1054.000,1.000,409.000,5.000,0
"04/02/08","04:12:25",35455.000,"cc",28310.320,6.00,6,0.100,29581.000,0.200,2945.000,0.300,1225.000,0.500,1234.000,1.000,470.000,5.000,0
"04/02/08","04:12:31",34606.000,"cc",28341.777,6.00,6,0.100,28602.000,0.200,2872.000,0.300,1290.000,0.500,1335.000,1.000,507.000,5.000,0
"04/02/08","04:12:37",35750.000,"cc",28317.086,6.00,6,0.100,29877.000,0.200,2959.000,0.300,1205.000,0.500,1272.000,1.000,437.000,5.000,0
"04/02/08","04:12:43",30549.000,"cc",28290.486,6.00,6,0.100,25135.000,0.200,2462.000,0.300,1196.000,0.500,1259.000,1.000,497.000,5.000,0
"04/02/08","04:12:49",28812.000,"cc",28295.623,6.00,6,0.100,22887.000,0.200,2474.000,0.300,1366.000,0.500,1486.000,1.000,599.000,5.000,0
"04/02/08","04:12:55",31305.000,"cc",28305.645,6.00,6,0.100,25811.000,0.200,2472.000,0.300,1269.000,0.500,1278.000,1.000,475.000,5.000,0
"04/02/08","04:13:01",33472.000,"cc",28309.615,6.00,6,0.100,27363.000,0.200,2765.000,0.300,1392.000,0.500,1377.000,1.000,575.000,5.000,0
"04/02/08","04:13:07",36155.000,"cc",28286.742,6.00,6,0.100,28829.000,0.200,3351.000,0.300,1721.000,0.500,1630.000,1.000,624.000,5.000,0
"04/02/08","04:13:13",33604.000,"cc",28368.729,6.00,6,0.100,25231.000,0.200,3467.000,0.300,2112.000,0.500,2011.000,1.000,783.000,5.000,0
"04/02/08","04:13:19",36476.000,"cc",28342.107,6.00,6,0.100,27377.000,0.200,3716.000,0.300,2233.000,0.500,2299.000,1.000,851.000,5.000,0
"04/02/08","04:13:25",34631.000,"cc",28277.467,6.00,6,0.100,25665.000,0.200,3756.000,0.300,2179.000,0.500,2157.000,1.000,874.000,5.000,0
"04/02/08","04:13:31",37233.000,"cc",28360.008,6.00,6,0.100,30797.000,0.200,3216.000,0.300,1351.000,0.500,1316.000,1.000,553.000,5.000,0
"04/02/08","04:13:37",33284.000,"cc",28275.113,6.00,6,0.100,27678.000,0.200,2731.000,0.300,1209.000,0.500,1170.000,1.000,496.000,5.000,0
"04/02/08","04:13:43",31218.000,"cc",28284.482,6.00,6,0.100,25211.000,0.200,2708.000,0.300,1416.000,0.500,1351.000,1.000,532.000,5.000,0
"04/02/08","04:13:49",31500.000,"cc",28292.486,6.00,6,0.100,25568.000,0.200,2664.000,0.300,1349.000,0.500,1423.000,1.000,496.000,5.000,0
"04/02/08","04:13:55",30381.000,"cc",28329.815,6.00,6,0.100,24340.000,0.200,2676.000,0.300,1358.000,0.500,1421.000,1.000,586.000,5.000,0
"04/02/08","04:14:01",31696.000,"cc",28334.008,6.00,6,0.100,26118.000,0.200,2629.000,0.300,1240.000,0.500,1261.000,1.000,448.000,5.000,0
"04/02/08","04:14:07",28422.000,"cc",28352.719,6.00,6,0.100,21673.000,0.200,2818.000,0.300,1659.000,0.500,1618.000,1.000,653.000,5.000,1.000
"04/02/08","04:14:13",31734.000,"cc",28336.051,6.00,6,0.100,26197.000,0.200,2570.000,0.300,1260.000,0.500,1268.000,1.000,439.000,5.000,0
"04/02/08","04:14:19",33275.000,"cc",28329.506,6.00,6,0.100,26250.000,0.200,3273.000,0.300,1632.000,0.500,1522.000,1.000,598.000,5.000,0
"04/02/08","04:14:25",35702.000,"cc",28250.566,6.00,6,0.100,27232.000,0.200,3931.000,0.300,2016.000,0.500,1815.000,1.000,708.000,5.000,0
"04/02/08","04:14:31",40454.000,"cc",28331.227,6.00,6,0.100,28506.000,0.200,5243.000,0.300,2979.000,0.500,2744.000,1.000,982.000,5.000,0
"04/02/08","04:14:37",36419.000,"cc",28309.402,6.00,6,0.100,25611.000,0.200,4579.000,0.300,2729.000,0.500,2575.000,1.000,925.000,5.000,0
"04/02/08","04:14:43",32647.000,"cc",28338.676,6.00,6,0.100,23444.000,0.200,3892.000,0.300,2388.000,0.500,2163.000,1.000,760.000,5.000,0
"04/02/08","04:14:49",36290.000,"cc",28337.777,6.00,6,0.100,25553.000,0.200,4608.000,0.300,2751.000,0.500,2421.000,1.000,957.000,5.000,0
"04/02/08","04:14:55",34053.000,"cc",28257.623,6.00,6,0.100,23110.000,0.200,4537.000,0.300,2857.000,0.500,2568.000,1.000,981.000,5.000,0
"04/02/08","04:15:01",34614.000,"cc",28323.844,6.00,6,0.100,23158.000,0.200,4762.000,0.300,3015.000,0.500,2667.000,1.000,1012.000,5.000,0
"04/02/08","04:15:07",34766.000,"cc",28312.234,6.00,6,0.100,23375.000,0.200,4843.000,0.300,2872.000,0.500,2690.000,1.000,986.000,5.000,0
"04/02/08","04:15:13",37392.000,"cc",28351.059,6.00,6,0.100,24640.000,0.200,5329.000,0.300,3284.000,0.500,2953.000,1.000,1186.000,5.000,0
"04/02/08","04:15:19",41887.000,"cc",28255.902,6.00,6,0.100,31103.000,0.200,4762.000,0.300,2683.000,0.500,2390.000,1.000,949.000,5.000,0
"04/02/08","04:15:25",44252.000,"cc",28335.215,6.00,6,0.100,29035.000,0.200,6190.000,0.300,4010.000,0.500,3601.000,1.000,1416.000,5.000,0
"04/02/08","04:15:31",39439.000,"cc",28336.402,6.00,6,0.100,27632.000,0.200,5015.000,0.300,3032.000,0.500,2712.000,1.000,1048.000,5.000,0
"04/02/08","04:15:37",34250.000,"cc",28315.381,6.00,6,0.100,26028.000,0.200,3708.000,0.300,1948.000,0.500,1824.000,1.000,742.000,5.000,0
"04/02/08","04:15:43",32523.000,"cc",28337.002,6.00,6,0.100,25268.000,0.200,3278.000,0.300,1710.000,0.500,1607.000,1.000,660.000,5.000,0
"04/02/08","04:15:49",30566.000,"cc",28346.600,6.00,6,0.100,21225.000,0.200,3738.000,0.300,2409.000,0.500,2302.000,1.000,892.000,5.000,0
"04/02/08","04:15:55",33946.000,"cc",28312.959,6.00,6,0.100,24278.000,0.200,3983.000,0.300,2463.000,0.500,2294.000,1.000,928.000,5.000,0
"04/02/08","04:16:01",32947.000,"cc",28288.094,6.00,6,0.100,24169.000,0.200,3600.000,0.300,2149.000,0.500,2159.000,1.000,870.000,5.000,0
"04/02/08","04:16:07",32836.000,"cc",28271.500,6.00,6,0.100,24573.000,0.200,3466.000,0.300,2044.000,0.500,1975.000,1.000,778.000,5.000,0
"04/02/08","04:16:13",31853.000,"cc",28256.469,6.00,6,0.100,22890.000,0.200,3540.000,0.300,2239.000,0.500,2295.000,1.000,889.000,5.000,0
"04/02/08","04:16:19",35406.000,"cc",28311.195,6.00,6,0.100,23314.000,0.200,4706.000,0.300,3202.000,0.500,3062.000,1.000,1122.000,5.000,0